WMT2306 LIBD-LATI

Flight info

Callsign WMT2306
Flight time 0h 37m
Altitude 18000
Route VURKE DCT CRAYE/N0367F170 W36 LASTI L607 PETAK
Aircraft A321/M-SDE3FGHIRWY/LB1

Departure

Time 2026-04-21 04:38
Airport Bari Karol Wojtyła International Airport (LIBD)

Arrival

Time 2026-04-21 05:15
Airport Tirana International Airport Mother Teresa (LATI)
Time Latitude Longitude Altitude Speed Heading
2026-04-21 04:09 41.13479 16.76182 159 ft 0 kts 159°
2026-04-21 04:28 41.13492 16.76176 159 ft 4 kts 164°
2026-04-21 04:28 41.13518 16.76170 159 ft 4 kts 180°
2026-04-21 04:29 41.13544 16.76174 159 ft 4 kts 206°
2026-04-21 04:29 41.13560 16.76193 158 ft 1 kts 249°
2026-04-21 04:29 41.13561 16.76194 158 ft 0 kts 249°
2026-04-21 04:32 41.13559 16.76189 158 ft 1 kts 249°
2026-04-21 04:32 41.13554 16.76165 158 ft 5 kts 257°
2026-04-21 04:33 41.13558 16.76119 158 ft 6 kts 293°
2026-04-21 04:33 41.13588 16.76079 158 ft 7 kts 319°
2026-04-21 04:33 41.13626 16.76031 158 ft 8 kts 308°
2026-04-21 04:33 41.13640 16.75951 158 ft 10 kts 258°
2026-04-21 04:34 41.13607 16.75854 158 ft 13 kts 246°
2026-04-21 04:34 41.13571 16.75730 158 ft 16 kts 249°
2026-04-21 04:34 41.13530 16.75583 158 ft 18 kts 249°
2026-04-21 04:34 41.13482 16.75414 158 ft 21 kts 249°
2026-04-21 04:35 41.13430 16.75233 158 ft 17 kts 249°
2026-04-21 04:35 41.13385 16.75075 158 ft 20 kts 249°
2026-04-21 04:35 41.13335 16.74895 158 ft 22 kts 249°
2026-04-21 04:35 41.13278 16.74695 158 ft 24 kts 249°
2026-04-21 04:36 41.13216 16.74480 158 ft 23 kts 249°
2026-04-21 04:36 41.13177 16.74343 157 ft 11 kts 249°
2026-04-21 04:36 41.13163 16.74265 157 ft 9 kts 271°
2026-04-21 04:36 41.13192 16.74182 156 ft 11 kts 304°
2026-04-21 04:37 41.13261 16.74096 148 ft 10 kts 340°
2026-04-21 04:37 41.13294 16.74112 148 ft 6 kts 46°
2026-04-21 04:37 41.13315 16.74165 149 ft 7 kts 68°
2026-04-21 04:37 41.13336 16.74236 150 ft 10 kts 69°
2026-04-21 04:38 41.13398 16.74452 150 ft 56 kts 70°
2026-04-21 04:38 41.13620 16.75242 150 ft 125 kts 69°
2026-04-21 04:38 41.13995 16.76563 184 ft 175 kts 69°
2026-04-21 04:38 41.14420 16.78027 871 ft 169 kts 70°
2026-04-21 04:39 41.14825 16.79504 1519 ft 172 kts 68°
2026-04-21 04:39 41.15240 16.81026 2046 ft 182 kts 67°
2026-04-21 04:39 41.15693 16.82683 2349 ft 200 kts 66°
2026-04-21 04:39 41.16206 16.84492 2617 ft 219 kts 65°
2026-04-21 04:40 41.16786 16.86464 2832 ft 238 kts 65°
2026-04-21 04:40 41.17408 16.88609 3015 ft 260 kts 66°
2026-04-21 04:40 41.18076 16.90922 3486 ft 272 kts 66°
2026-04-21 04:40 41.18696 16.93310 4229 ft 277 kts 76°
2026-04-21 04:41 41.18805 16.95897 4852 ft 287 kts 90°
2026-04-21 04:41 41.18743 16.98566 5539 ft 291 kts 91°
2026-04-21 04:41 41.18673 17.01215 6288 ft 293 kts 91°
2026-04-21 04:41 41.18612 17.03936 6966 ft 296 kts 91°
2026-04-21 04:42 41.18558 17.06689 7624 ft 301 kts 91°
2026-04-21 04:42 41.18509 17.09489 8308 ft 305 kts 90°
2026-04-21 04:42 41.18465 17.12317 9001 ft 308 kts 90°
2026-04-21 04:42 41.18427 17.15174 9700 ft 311 kts 88°
2026-04-21 04:43 41.18638 17.18048 10227 ft 319 kts 81°
2026-04-21 04:43 41.18958 17.21070 10365 ft 342 kts 81°
2026-04-21 04:43 41.19296 17.24300 10493 ft 363 kts 81°
2026-04-21 04:43 41.19651 17.27709 10692 ft 380 kts 81°
2026-04-21 04:44 41.20010 17.31219 11187 ft 386 kts 81°
2026-04-21 04:44 41.20367 17.34770 11766 ft 390 kts 81°
2026-04-21 04:44 41.20728 17.38362 12353 ft 394 kts 81°
2026-04-21 04:44 41.21093 17.41999 12934 ft 399 kts 81°
2026-04-21 04:45 41.21460 17.45676 13512 ft 404 kts 81°
2026-04-21 04:45 41.21830 17.49398 14081 ft 408 kts 81°
2026-04-21 04:45 41.22198 17.53106 14625 ft 411 kts 81°
2026-04-21 04:45 41.22574 17.56886 15184 ft 415 kts 81°
2026-04-21 04:46 41.22952 17.60695 15751 ft 418 kts 81°
2026-04-21 04:46 41.23334 17.64533 16317 ft 421 kts 81°
2026-04-21 04:46 41.23717 17.68403 16888 ft 424 kts 81°
2026-04-21 04:46 41.24100 17.72298 17428 ft 428 kts 81°
2026-04-21 04:47 41.24483 17.76239 17854 ft 432 kts 81°
2026-04-21 04:47 41.24869 17.80213 17945 ft 440 kts 81°
2026-04-21 04:47 41.25266 17.84297 17951 ft 449 kts 81°
2026-04-21 04:47 41.25665 17.88427 17953 ft 452 kts 81°
2026-04-21 04:48 41.26063 17.92568 17953 ft 452 kts 81°
2026-04-21 04:48 41.26477 17.96710 17950 ft 451 kts 78°
2026-04-21 04:48 41.27343 18.00679 17953 ft 447 kts 64°
2026-04-21 04:48 41.28873 18.04236 17959 ft 441 kts 49°
2026-04-21 04:49 41.30953 18.07183 17955 ft 434 kts 36°
2026-04-21 04:49 41.33439 18.09383 17954 ft 427 kts 22°
2026-04-21 04:49 41.36187 18.10748 17953 ft 418 kts
2026-04-21 04:49 41.39043 18.11320 17956 ft 413 kts
2026-04-21 04:50 41.41910 18.11719 17962 ft 414 kts
2026-04-21 04:50 41.44772 18.12119 17959 ft 414 kts
2026-04-21 04:50 41.47612 18.12828 17953 ft 420 kts 11°
2026-04-21 04:50 41.50353 18.14245 17955 ft 426 kts 22°
2026-04-21 04:51 41.52888 18.16342 17955 ft 433 kts 33°
2026-04-21 04:51 41.55161 18.19019 17959 ft 436 kts 39°
2026-04-21 04:51 41.57370 18.21797 17960 ft 437 kts 39°
2026-04-21 04:51 41.59585 18.24577 17956 ft 437 kts 39°
2026-04-21 04:52 41.61768 18.27316 17950 ft 437 kts 39°
2026-04-21 04:52 41.63984 18.30092 17947 ft 436 kts 39°
2026-04-21 04:52 41.66185 18.32852 17927 ft 431 kts 39°
2026-04-21 04:52 41.68370 18.35593 17942 ft 433 kts 39°
2026-04-21 04:53 41.70574 18.38362 17954 ft 436 kts 39°
2026-04-21 04:53 41.72791 18.41155 17953 ft 437 kts 39°
2026-04-21 04:53 41.75002 18.43950 17954 ft 438 kts 39°
2026-04-21 04:53 41.77199 18.46770 17954 ft 437 kts 40°
2026-04-21 04:54 41.79385 18.49612 17954 ft 437 kts 40°
2026-04-21 04:54 41.81560 18.52456 17957 ft 438 kts 40°
2026-04-21 04:54 41.83736 18.55308 17957 ft 438 kts 40°
2026-04-21 04:54 41.85918 18.58165 17961 ft 438 kts 40°
2026-04-21 04:55 41.88117 18.60988 17961 ft 437 kts 39°
2026-04-21 04:55 41.90358 18.63732 17980 ft 436 kts 38°
2026-04-21 04:55 41.92637 18.66428 17950 ft 436 kts 37°
2026-04-21 04:55 41.94907 18.69130 17951 ft 437 kts 38°
2026-04-21 04:56 41.97151 18.71893 17955 ft 438 kts 39°
2026-04-21 04:56 41.99365 18.74700 17949 ft 438 kts 40°
2026-04-21 04:56 42.01565 18.77541 17945 ft 439 kts 40°
2026-04-21 04:56 42.03608 18.80597 17943 ft 443 kts 53°
2026-04-21 04:57 42.04981 18.84326 17944 ft 449 kts 70°
2026-04-21 04:57 42.05500 18.88468 17968 ft 452 kts 89°
2026-04-21 04:57 42.05064 18.92635 17957 ft 451 kts 109°
2026-04-21 04:57 42.03732 18.96417 17936 ft 446 kts 127°
2026-04-21 04:58 42.02442 18.98550 17931 ft 442 kts 137°
2026-04-21 04:58 42.00266 19.01452 17841 ft 435 kts 138°
2026-04-21 04:58 41.98108 19.04304 17540 ft 437 kts 138°
2026-04-21 04:58 41.95932 19.07165 17041 ft 436 kts 138°
2026-04-21 04:59 41.93772 19.10003 16437 ft 433 kts 138°
2026-04-21 04:59 41.91628 19.12815 15829 ft 429 kts 138°
2026-04-21 04:59 41.89506 19.15598 15206 ft 425 kts 138°
2026-04-21 04:59 41.87407 19.18354 14604 ft 421 kts 138°
2026-04-21 05:00 41.85325 19.21098 14196 ft 418 kts 138°
2026-04-21 05:00 41.83260 19.23823 13594 ft 415 kts 137°
2026-04-21 05:00 41.79190 19.29203 12423 ft 407 kts 137°
2026-04-21 05:01 41.77214 19.31902 11826 ft 404 kts 133°
2026-04-21 05:01 41.75400 19.34739 11062 ft 396 kts 132°
2026-04-21 05:01 41.73686 19.37477 10861 ft 369 kts 132°
2026-04-21 05:01 41.72103 19.40026 10719 ft 343 kts 132°
2026-04-21 05:02 41.70626 19.42406 10472 ft 326 kts 132°
2026-04-21 05:02 41.69189 19.44710 9980 ft 320 kts 133°
2026-04-21 05:02 41.67784 19.46952 9688 ft 308 kts 133°
2026-04-21 05:02 41.66420 19.49118 9571 ft 302 kts 133°
2026-04-21 05:03 41.65058 19.51280 9428 ft 304 kts 133°
2026-04-21 05:03 41.63707 19.53431 8963 ft 300 kts 133°
2026-04-21 05:03 41.62360 19.55545 8418 ft 296 kts 136°
2026-04-21 05:03 41.60762 19.57167 7871 ft 284 kts 160°
2026-04-21 05:04 41.58913 19.57869 7331 ft 272 kts 181°
2026-04-21 05:04 41.57075 19.57677 6765 ft 261 kts 200°
2026-04-21 05:04 41.55455 19.56700 6227 ft 253 kts 219°
2026-04-21 05:04 41.54215 19.55115 5996 ft 246 kts 236°
2026-04-21 05:05 41.53409 19.53104 5981 ft 248 kts 252°
2026-04-21 05:05 41.53038 19.50848 5993 ft 249 kts 262°
2026-04-21 05:05 41.52826 19.48561 5981 ft 247 kts 264°
2026-04-21 05:05 41.52669 19.46277 5991 ft 248 kts 265°
2026-04-21 05:06 41.52524 19.43985 5989 ft 248 kts 265°
2026-04-21 05:06 41.52622 19.41697 5984 ft 248 kts 282°
2026-04-21 05:06 41.53242 19.39547 5987 ft 251 kts 298°
2026-04-21 05:06 41.54364 19.37744 5989 ft 256 kts 317°
2026-04-21 05:07 41.55909 19.36524 5994 ft 263 kts 336°
2026-04-21 05:07 41.57721 19.36078 5993 ft 268 kts 357°
2026-04-21 05:07 41.59561 19.36525 5997 ft 274 kts 18°
2026-04-21 05:07 41.61191 19.37866 5996 ft 280 kts 41°
2026-04-21 05:08 41.62364 19.39954 5987 ft 285 kts 64°
2026-04-21 05:08 41.62905 19.42502 5992 ft 286 kts 81°
2026-04-21 05:08 41.63166 19.45135 5997 ft 287 kts 84°
2026-04-21 05:08 41.63358 19.47791 5994 ft 287 kts 85°
2026-04-21 05:09 41.63527 19.50456 5992 ft 290 kts 85°
2026-04-21 05:09 41.63686 19.53165 5983 ft 294 kts 85°
2026-04-21 05:09 41.63857 19.55919 5562 ft 305 kts 85°
2026-04-21 05:09 41.64058 19.58713 5239 ft 297 kts 85°
2026-04-21 05:10 41.64267 19.61414 4568 ft 293 kts 85°
2026-04-21 05:10 41.64473 19.64023 4345 ft 271 kts 85°
2026-04-21 05:10 41.64475 19.66422 4225 ft 250 kts 107°
2026-04-21 05:10 41.63648 19.68348 4128 ft 232 kts 140°
2026-04-21 05:11 41.62265 19.69291 3820 ft 220 kts 173°
2026-04-21 05:11 41.60769 19.69514 3552 ft 214 kts 177°
2026-04-21 05:11 41.59304 19.69706 3296 ft 209 kts 176°
2026-04-21 05:11 41.57869 19.69894 3068 ft 205 kts 176°
2026-04-21 05:12 41.56448 19.70072 2823 ft 205 kts 176°
2026-04-21 05:12 41.55035 19.70252 2540 ft 203 kts 175°
2026-04-21 05:12 41.53632 19.70438 2280 ft 201 kts 175°
2026-04-21 05:12 41.52278 19.70619 2036 ft 187 kts 174°
2026-04-21 05:13 41.51047 19.70784 1776 ft 170 kts 175°
2026-04-21 05:13 41.49917 19.70933 1562 ft 158 kts 174°
2026-04-21 05:13 41.48851 19.71075 1356 ft 148 kts 174°
2026-04-21 05:13 41.47850 19.71210 1159 ft 142 kts 175°
2026-04-21 05:14 41.46868 19.71339 956 ft 141 kts 174°
2026-04-21 05:14 41.45893 19.71469 769 ft 144 kts 174°
2026-04-21 05:14 41.44880 19.71605 579 ft 148 kts 175°
2026-04-21 05:14 41.43845 19.71741 394 ft 152 kts 175°
2026-04-21 05:15 41.42792 19.71886 194 ft 153 kts 176°
2026-04-21 05:15 41.41792 19.72014 121 ft 129 kts 174°
2026-04-21 05:15 41.41071 19.72110 133 ft 79 kts 174°
2026-04-21 05:15 41.40773 19.72153 134 ft 18 kts 175°
2026-04-21 05:16 41.40701 19.72150 134 ft 7 kts 207°
2026-04-21 05:16 41.40676 19.72084 133 ft 10 kts 250°
2026-04-21 05:16 41.40656 19.71984 132 ft 12 kts 258°
2026-04-21 05:16 41.40639 19.71870 132 ft 10 kts 258°
2026-04-21 05:17 41.40641 19.71798 132 ft 8 kts 301°
2026-04-21 05:17 41.40693 19.71769 132 ft 9 kts 352°
2026-04-21 05:17 41.40760 19.71759 132 ft 11 kts 353°
2026-04-21 05:17 41.40839 19.71742 131 ft 12 kts 349°
2026-04-21 05:18 41.40927 19.71720 128 ft 14 kts 351°
2026-04-21 05:18 41.41028 19.71704 127 ft 15 kts 354°
2026-04-21 05:18 41.41141 19.71690 128 ft 17 kts 355°
2026-04-21 05:18 41.41265 19.71674 129 ft 19 kts 354°
2026-04-21 05:19 41.41399 19.71655 125 ft 20 kts 354°
2026-04-21 05:19 41.41544 19.71635 127 ft 22 kts 354°
2026-04-21 05:19 41.41694 19.71616 121 ft 21 kts 354°
2026-04-21 05:19 41.41829 19.71597 123 ft 14 kts 354°
2026-04-21 05:20 41.41883 19.71589 121 ft 5 kts 353°
2026-04-21 05:20 41.41917 19.71585 122 ft 6 kts 355°
2026-04-21 05:20 41.41953 19.71577 122 ft 1 kts 332°
2026-04-21 05:20 41.41953 19.71569 123 ft 0 kts 288°
2026-04-21 05:21 41.41952 19.71563 119 ft 1 kts 268°
2026-04-21 05:21 41.41951 19.71545 123 ft 2 kts 263°
2026-04-21 05:21 41.41950 19.71531 123 ft 1 kts 264°
2026-04-21 05:21 41.41949 19.71521 122 ft 1 kts 264°
2026-04-21 05:22 41.41949 19.71519 123 ft 0 kts 264°